Location: Clanezzo
(45.7500°N, 9.6000°E)
Time: 03:34:02
(UTC+00:00)

USA 215 - Pass Details

Date: 12 May 2021
Orbit: 1100 x 1107 km, 123.0° (Epoch: 14 June)

Event Time Altitude Azimuth Distance (km) Brightness Sun altitude
Exits shadow 22:28:31 - 98° (E) 3,335 5.6 -24.9°
Reaches altitude 10° 22:29:32 10° 95° (E) 2,956 5.3 -24.9°
Maximum altitude 22:35:45 49° 23° (NNE) 1,391 4.0 -25.2°
Drops below altitude 10° 22:41:59 10° 311° (NW) 2,965 6.2 -25.4°
Sets 22:44:33 0° 307° (NW) 3,925 6.8 -25.4°
